Home   Weather   Hangzhou   Past weeks

Flag for China Past Weather in Hangzhou, Zhejiang, China — Yesterday and Last 2 Weeks

Now
81 °F

Haze.


Feels Like: 85 °F
Forecast: 64 / 83 °F
Wind: 1 mph from North

Location: Hangzhou Airport

Current Time: Sep 25, 2016 at 10:14:49 AM

Latest Report: Sep 25, 2016 at 9:30 AM


Visibility: 2 mi

Pressure: 29.95 "Hg

Humidity: 74%

Dew Point: 72 °F

Location of HangzhouLocation

Past Weather in Hangzhou — Graph

°F

Hangzhou Temperature Yesterday

Maximum temperature yesterday: 86 °F (at 1:00 PM)
Minimum temperature yesterday: 68 °F (at 4:30 AM)
Average temperature yesterday: 76 °F

High & Low Weather Summary for the Past Weeks

 TemperatureHumidityPressure
High86 °F (Sep 10, 3:30 PM)100% (Sep 12, 1:00 AM)30.15 "Hg (Sep 12, 1:00 AM)
Low66 °F (Sep 21, 4:00 AM)34% (Sep 20, 4:00 PM)29.65 "Hg (Sep 16, 12:30 PM)
Average75 °F80%29.93 "Hg
* Reported Sep 10 9:00 AM — Sep 25 9:00 AM, Hangzhou, Weather by CustomWeather, © 2016

Note: Actual official high and low records may vary slightly from our data, if they occured in-between our weather recording intervals... More about our weather records

Advertising

Hangzhou Weather History for the Previous 24 Hours

Scroll right to see more
 ConditionsComfort  
Time TempWeatherWind HumidityBarometerVisibility
9:00 AM
Sun, Sep 25
79 °FFog.3 mph79%29.95 "Hg1 mi
8:30 AM77 °FFog.1 mph83%29.92 "Hg1 mi
8:00 AM77 °FFog.No wind83%29.92 "Hg2 mi
7:30 AM73 °FFog.1 mph94%29.92 "Hg2 mi
7:00 AM72 °FFog.No wind94%29.92 "Hg2 mi
6:30 AM70 °FFog.No wind100%29.92 "Hg2 mi
6:00 AM70 °FFog.No wind94%29.89 "Hg2 mi
5:30 AM70 °FFog.No wind94%29.89 "Hg2 mi
5:00 AM70 °FClear.No wind100%29.89 "Hg4 mi
4:30 AM70 °FClear.No wind100%29.89 "Hg4 mi
4:00 AM70 °FClear.1 mph94%29.86 "Hg4 mi
3:30 AM72 °FClear.1 mph88%29.86 "Hg4 mi
3:00 AM70 °FClear.1 mph100%29.86 "Hg4 mi
2:30 AM70 °FClear.3 mph94%29.86 "Hg4 mi
2:00 AM72 °FClear.3 mph94%29.89 "Hg4 mi
1:30 AM72 °FClear.3 mph88%29.89 "Hg5 mi
1:00 AM73 °FClear.3 mph89%29.89 "Hg5 mi
12:30 AM72 °FClear.3 mph94%29.89 "Hg10 mi
12:00 AM73 °FClear.6 mph89%29.89 "Hg10 mi
11:30 PM
Sat, Sep 24
73 °FClear.3 mph83%29.89 "Hg5 mi
11:00 PM73 °FClear.3 mph89%29.89 "Hg5 mi
10:30 PM75 °FClear.6 mph83%29.89 "Hg5 mi
10:00 PM75 °FClear.6 mph83%29.89 "Hg5 mi
9:30 PM75 °FClear.6 mph83%29.89 "Hg10 mi
9:00 PM75 °FClear.8 mph83%29.89 "Hg10 mi
8:30 PM75 °FClear.8 mph83%29.89 "Hg10 mi
8:00 PM75 °FPassing clouds.6 mph83%29.89 "HgN/A
7:30 PM75 °FClear.8 mph83%29.89 "Hg10 mi
7:00 PM75 °FClear.10 mph83%29.89 "Hg10 mi
6:30 PM75 °FClear.8 mph83%29.86 "Hg10 mi
6:00 PM77 °FClear.10 mph79%29.86 "Hg10 mi
5:30 PM79 °FSunny.13 mph74%29.86 "Hg10 mi
5:00 PM81 °FSunny.13 mph70%29.86 "Hg10 mi
4:30 PM82 °FSunny.13 mph66%29.86 "Hg10 mi
4:00 PM84 °FSunny.10 mph62%29.86 "Hg10 mi
3:30 PM86 °FSunny.10 mph59%29.86 "Hg10 mi
3:00 PM86 °FPassing clouds.8 mph55%29.86 "HgN/A
2:30 PM86 °FPassing clouds.6 mph55%29.86 "HgN/A
2:00 PM86 °FPassing clouds.8 mph59%29.86 "HgN/A
1:30 PM86 °FPassing clouds.8 mph59%29.86 "HgN/A
1:00 PM86 °FPassing clouds.6 mph59%29.89 "HgN/A
12:30 PM84 °FScattered clouds.6 mph62%29.89 "HgN/A
12:00 PM84 °FScattered clouds.6 mph62%29.92 "HgN/A
11:30 AM84 °FPassing clouds.8 mph58%29.92 "HgN/A
11:00 AM82 °FPassing clouds.3 mph66%29.95 "HgN/A
10:30 AM82 °FPassing clouds.3 mph66%29.95 "HgN/A
10:00 AM82 °FClear.3 mph62%29.95 "Hg5 mi
Weather by CustomWeather, © 2016

See weather overviewHow to use our weather pages